Location: Aranbee
(34.0885°N, 118.2342°W)
Time: 06:51:31
(UTC+00:00)

Vanguard 1 - Pass Details

Date: 29 July 2021
Orbit: 652 x 3831 km, 34.3° (Epoch: 25 September)

Event Time Altitude Azimuth Distance (km) Brightness Sun altitude
Rises 03:41:08 0° 271° (W) 6,222 15.4 -9.0°
Reaches altitude 10° 03:47:10 10° 254° (WSW) 5,766 14.6 -10.1°
Maximum altitude 03:57:21 17° 220° (SW) 5,839 14.1 -11.9°
Drops below altitude 10° 04:09:30 10° 187° (S) 6,889 14.1 -14.0°
Sets 04:18:25 0° 170° (S) 7,931 14.3 -15.5°
